| time (UTC) | temp C | wind direction | speed KPH | gust KPH | rain 1hr cm | rain 24hr cm | rain mn cm | humidity % | barometer mb |
| 20260510054346 | 26 | 152 | 0.0 | 0.0 | 0.00 | 0.00 | 0.00 | 83 | 1015.7 |
| 20260510053856 | 26 | 152 | 0.0 | 0.0 | 0.00 | 0.00 | 0.00 | 83 | 1015.7 |
| 20260510053328 | 26 | 153 | 0.0 | 0.0 | 0.00 | 0.00 | 0.00 | 83 | 1015.6 |
| 20260510052822 | 26 | 152 | 0.0 | 0.0 | 0.00 | 0.00 | 0.00 | 83 | 1015.7 |
| 20260510052323 | 26 | 152 | 0.0 | 0.0 | 0.00 | 0.00 | 0.00 | 83 | 1015.8 |
| 20260510051833 | 26 | 152 | 0.0 | 0.0 | 0.00 | 0.00 | 0.00 | 83 | 1016.0 |
| 20260510051327 | 26 | 152 | 0.0 | 0.0 | 0.00 | 0.00 | 0.00 | 83 | 1015.9 |
| 20260510050835 | 26 | 153 | 0.0 | 0.0 | 0.00 | 0.00 | 0.00 | 83 | 1016.0 |
| 20260510050330 | 26 | 152 | 0.0 | 0.0 | 0.00 | 0.00 | 0.00 | 82 | 1016.0 |
| 20260510045822 | 26 | 152 | 0.0 | 0.0 | 0.00 | 0.00 | 0.00 | 82 | 1016.1 |
| 20260510045344 | 26 | 152 | 0.0 | 0.0 | 0.00 | 0.00 | 0.00 | 82 | 1016.0 |
| 20260510044824 | 26 | 153 | 0.0 | 0.0 | 0.00 | 0.00 | 0.00 | 81 | 1016.2 |
| 20260510044333 | 26 | 152 | 0.0 | 0.0 | 0.00 | 0.00 | 0.00 | 81 | 1016.1 |
| 20260510043824 | 27 | 152 | 0.0 | 0.0 | 0.00 | 0.00 | 0.00 | 81 | 1016.2 |
| 20260510043344 | 27 | 152 | 0.0 | 0.0 | 0.00 | 0.00 | 0.00 | 80 | 1016.2 |
| 20260510042900 | 27 | 152 | 0.0 | 0.0 | 0.00 | 0.00 | 0.00 | 80 | 1016.3 |
| 20260510042407 | 27 | 152 | 0.0 | 0.0 | 0.00 | 0.00 | 0.00 | 80 | 1016.2 |
| 20260510041846 | 27 | 152 | 0.0 | 0.0 | 0.00 | 0.00 | 0.00 | 79 | 1016.3 |
| 20260510041326 | 27 | 152 | 0.0 | 0.0 | 0.00 | 0.00 | 0.00 | 79 | 1016.3 |
| 20260510040836 | 27 | 152 | 0.0 | 0.0 | 0.00 | 0.00 | 0.00 | 79 | 1016.2 |
| 20260510040347 | 27 | 152 | 0.0 | 0.0 | 0.00 | 0.00 | 0.00 | 79 | 1016.2 |
| 20260510035831 | 27 | 152 | 0.0 | 0.0 | 0.00 | 0.00 | 0.00 | 78 | 1016.2 |
| 20260510035334 | 27 | 152 | 0.0 | 0.0 | 0.00 | 0.00 | 0.00 | 78 | 1016.2 |
| 20260510034846 | 27 | 150 | 0.0 | 1.6 | 0.00 | 0.00 | 0.00 | 78 | 1016.2 |
| 20260510034340 | 27 | 142 | 0.0 | 1.6 | 0.00 | 0.00 | 0.00 | 78 | 1016.0 |
| 20260510033833 | 28 | 142 | 0.0 | 1.6 | 0.00 | 0.00 | 0.00 | 77 | 1016.1 |
| 20260510033324 | 28 | 142 | 0.0 | 0.0 | 0.00 | 0.00 | 0.00 | 77 | 1016.1 |
| 20260510032835 | 28 | 142 | 0.0 | 1.6 | 0.00 | 0.00 | 0.00 | 77 | 1016.0 |
| 20260510032326 | 28 | 142 | 0.0 | 1.6 | 0.00 | 0.00 | 0.00 | 77 | 1015.9 |
| 20260510031857 | 28 | 152 | 0.0 | 0.0 | 0.00 | 0.00 | 0.00 | 77 | 1015.8 |
| 20260510031331 | 28 | 152 | 0.0 | 0.0 | 0.00 | 0.00 | 0.00 | 77 | 1015.8 |
| 20260510030823 | 28 | 151 | 0.0 | 3.2 | 0.00 | 0.00 | 0.00 | 77 | 1015.7 |
| 20260510030332 | 28 | 151 | 0.0 | 3.2 | 0.00 | 0.00 | 0.00 | 77 | 1015.7 |
| 20260510025826 | 28 | 141 | 0.0 | 0.0 | 0.00 | 0.00 | 0.00 | 77 | 1015.6 |
| 20260510025329 | 28 | 158 | 0.0 | 3.2 | 0.00 | 0.00 | 0.00 | 77 | 1015.6 |
| 20260510024820 | 28 | 161 | 1.6 | 4.8 | 0.00 | 0.00 | 0.00 | 77 | 1015.5 |
| 20260510024335 | 28 | 148 | 0.0 | 4.8 | 0.00 | 0.00 | 0.00 | 77 | 1015.5 |
| 20260510023821 | 28 | 148 | 1.6 | 4.8 | 0.00 | 0.00 | 0.00 | 77 | 1015.5 |
| 20260510022822 | 28 | 209 | 0.0 | 0.0 | 0.00 | 0.00 | 0.00 | 77 | 1015.4 |
| 20260510022343 | 28 | 147 | 0.0 | 1.6 | 0.00 | 0.00 | 0.00 | 77 | 1015.4 |
| 20260510021844 | 28 | 174 | 0.0 | 6.4 | 0.00 | 0.00 | 0.00 | 77 | 1015.4 |
| 20260510021326 | 28 | 169 | 1.6 | 6.4 | 0.00 | 0.00 | 0.00 | 77 | 1015.2 |
| 20260510020835 | 28 | 165 | 0.0 | 4.8 | 0.00 | 0.00 | 0.00 | 77 | 1015.0 |
| 20260510020347 | 28 | 105 | 1.6 | 8.0 | 0.00 | 0.00 | 0.00 | 77 | 1014.8 |
| 20260510015820 | 28 | 162 | 1.6 | 8.0 | 0.00 | 0.00 | 0.00 | 77 | 1014.7 |
| 20260510015335 | 28 | 146 | 3.2 | 9.7 | 0.00 | 0.00 | 0.00 | 77 | 1014.6 |
| 20260510014830 | 28 | 147 | 3.2 | 9.7 | 0.00 | 0.00 | 0.00 | 77 | 1014.6 |
| 20260510014357 | 28 | 162 | 3.2 | 8.0 | 0.00 | 0.00 | 0.00 | 77 | 1014.5 |
| 20260510013857 | 28 | 170 | 4.8 | 9.7 | 0.00 | 0.00 | 0.00 | 77 | 1014.5 |
| 20260510013404 | 28 | 148 | 3.2 | 9.7 | 0.00 | 0.00 | 0.00 | 77 | 1014.5 |
| 20260510012836 | 28 | 110 | 3.2 | 8.0 | 0.00 | 0.00 | 0.00 | 77 | 1014.5 |
| 20260510012336 | 28 | 178 | 1.6 | 9.7 | 0.00 | 0.00 | 0.00 | 77 | 1014.5 |
| 20260510011826 | 28 | 188 | 4.8 | 9.7 | 0.00 | 0.00 | 0.00 | 77 | 1014.4 |
| 20260510011321 | 28 | 139 | 4.8 | 9.7 | 0.00 | 0.00 | 0.00 | 77 | 1014.2 |
| 20260510010835 | 28 | 113 | 3.2 | 11.3 | 0.00 | 0.00 | 0.00 | 77 | 1014.2 |
| 20260510010328 | 28 | 136 | 3.2 | 11.3 | 0.00 | 0.00 | 0.00 | 77 | 1014.1 |
| 20260510005822 | 28 | 117 | 4.8 | 9.7 | 0.00 | 0.00 | 0.00 | 77 | 1014.0 |
| 20260510005333 | 28 | 189 | 3.2 | 9.7 | 0.00 | 0.00 | 0.00 | 77 | 1014.0 |
| 20260510004855 | 28 | 152 | 3.2 | 9.7 | 0.00 | 0.00 | 0.00 | 77 | 1013.8 |
| 20260510004330 | 28 | 176 | 3.2 | 9.7 | 0.00 | 0.00 | 0.00 | 77 | 1013.8 |
| 20260510003844 | 28 | 141 | 3.2 | 11.3 | 0.00 | 0.00 | 0.00 | 76 | 1013.7 |
| 20260510003333 | 29 | 120 | 4.8 | 11.3 | 0.00 | 0.00 | 0.00 | 76 | 1013.7 |
| 20260510002826 | 29 | 172 | 3.2 | 12.9 | 0.00 | 0.00 | 0.00 | 76 | 1013.5 |
| 20260510002320 | 29 | 116 | 6.4 | 11.3 | 0.00 | 0.00 | 0.00 | 76 | 1013.4 |
| 20260510001846 | 29 | 153 | 4.8 | 11.3 | 0.00 | 0.00 | 0.00 | 75 | 1013.3 |
| 20260510001338 | 29 | 133 | 3.2 | 16.1 | 0.00 | 0.00 | 0.00 | 75 | 1013.2 |
| 20260510000850 | 29 | 148 | 6.4 | 14.5 | 0.00 | 0.00 | 0.00 | 75 | 1013.1 |
| 20260510000343 | 29 | 174 | 8.0 | 14.5 | 0.00 | 0.00 | 0.00 | 75 | 1013.0 |
| 20260509235835 | 29 | 156 | 4.8 | 12.9 | 0.00 | 0.00 | 0.00 | 75 | 1012.9 |
| 20260509235328 | 30 | 149 | 4.8 | 14.5 | 0.00 | 0.00 | 0.00 | 74 | 1012.9 |
| 20260509234821 | 30 | 132 | 8.0 | 17.7 | 0.00 | 0.00 | 0.00 | 73 | 1012.9 |
| 20260509234332 | 30 | 142 | 6.4 | 12.9 | 0.00 | 0.00 | 0.00 | 73 | 1012.8 |
| 20260509233827 | 30 | 138 | 6.4 | 11.3 | 0.00 | 0.00 | 0.00 | 73 | 1012.8 |
| 20260509233341 | 30 | 155 | 3.2 | 14.5 | 0.00 | 0.00 | 0.00 | 74 | 1012.8 |
| 20260509232835 | 30 | 154 | 6.4 | 14.5 | 0.00 | 0.00 | 0.00 | 73 | 1012.9 |
| 20260509232328 | 30 | 115 | 9.7 | 16.1 | 0.00 | 0.00 | 0.00 | 73 | 1012.8 |
| 20260509231327 | 30 | 148 | 6.4 | 14.5 | 0.00 | 0.00 | 0.00 | 72 | 1012.6 |
| 20260509230821 | 30 | 132 | 8.0 | 16.1 | 0.00 | 0.00 | 0.00 | 71 | 1012.6 |
| 20260509230335 | 30 | 122 | 8.0 | 17.7 | 0.00 | 0.00 | 0.00 | 71 | 1012.5 |
| 20260509225847 | 30 | 136 | 9.7 | 17.7 | 0.00 | 0.00 | 0.00 | 71 | 1012.5 |
| 20260509225355 | 30 | 111 | 9.7 | 14.5 | 0.00 | 0.00 | 0.00 | 72 | 1012.5 |
| 20260509224827 | 31 | 120 | 9.7 | 16.1 | 0.00 | 0.00 | 0.00 | 71 | 1012.5 |
| 20260509224349 | 31 | 149 | 9.7 | 16.1 | 0.00 | 0.00 | 0.00 | 69 | 1012.6 |
| 20260509223841 | 31 | 153 | 6.4 | 12.9 | 0.00 | 0.00 | 0.00 | 69 | 1012.6 |
| 20260509223336 | 31 | 142 | 8.0 | 12.9 | 0.00 | 0.00 | 0.00 | 69 | 1012.7 |
| 20260509222830 | 31 | 158 | 6.4 | 16.1 | 0.00 | 0.00 | 0.00 | 70 | 1012.6 |
| 20260509222339 | 31 | 145 | 9.7 | 16.1 | 0.00 | 0.00 | 0.00 | 69 | 1012.7 |
| 20260509221820 | 31 | 122 | 9.7 | 16.1 | 0.00 | 0.00 | 0.00 | 70 | 1012.5 |
| 20260509221323 | 31 | 117 | 8.0 | 16.1 | 0.00 | 0.00 | 0.00 | 69 | 1012.5 |
| 20260509220846 | 31 | 153 | 9.7 | 16.1 | 0.00 | 0.00 | 0.00 | 68 | 1012.5 |
| 20260509220339 | 31 | 140 | 4.8 | 16.1 | 0.00 | 0.00 | 0.00 | 68 | 1012.4 |
| 20260509215830 | 31 | 115 | 9.7 | 17.7 | 0.00 | 0.00 | 0.00 | 69 | 1012.3 |
| 20260509215322 | 31 | 154 | 11.3 | 17.7 | 0.00 | 0.00 | 0.00 | 69 | 1012.4 |
| 20260509214845 | 31 | 124 | 11.3 | 19.3 | 0.00 | 0.00 | 0.00 | 68 | 1012.3 |
| 20260509214330 | 31 | 124 | 6.4 | 19.3 | 0.00 | 0.00 | 0.00 | 68 | 1012.3 |
| 20260509213824 | 31 | 134 | 11.3 | 25.7 | 0.00 | 0.00 | 0.00 | 68 | 1012.4 |
| 20260509213335 | 31 | 132 | 11.3 | 20.9 | 0.00 | 0.00 | 0.00 | 70 | 1012.5 |
| 20260509212838 | 31 | 127 | 14.5 | 22.5 | 0.00 | 0.00 | 0.00 | 69 | 1012.3 |
| 20260509212332 | 31 | 105 | 12.9 | 20.9 | 0.00 | 0.00 | 0.00 | 69 | 1012.3 |
| 20260509211823 | 31 | 142 | 11.3 | 19.3 | 0.00 | 0.00 | 0.00 | 71 | 1012.4 |
| 20260509211327 | 31 | 146 | 8.0 | 17.7 | 0.00 | 0.00 | 0.00 | 71 | 1012.3 |
| 20260509210821 | 31 | 120 | 9.7 | 19.3 | 0.00 | 0.00 | 0.00 | 71 | 1012.4 |
| 20260509210332 | 32 | 142 | 8.0 | 19.3 | 0.00 | 0.00 | 0.00 | 70 | 1012.4 |
| 20260509205836 | 31 | 162 | 11.3 | 22.5 | 0.00 | 0.00 | 0.00 | 71 | 1012.5 |
| 20260509205347 | 31 | 143 | 12.9 | 24.1 | 0.00 | 0.00 | 0.00 | 71 | 1012.3 |
| 20260509204831 | 31 | 127 | 16.1 | 24.1 | 0.00 | 0.00 | 0.00 | 71 | 1012.3 |
| 20260509204321 | 32 | 111 | 14.5 | 22.5 | 0.00 | 0.00 | 0.00 | 70 | 1012.3 |
| 20260509203828 | 32 | 152 | 16.1 | 22.5 | 0.00 | 0.00 | 0.00 | 69 | 1012.4 |
| 20260509203328 | 32 | 127 | 8.0 | 22.5 | 0.00 | 0.00 | 0.00 | 70 | 1012.3 |
| 20260509202821 | 32 | 130 | 12.9 | 22.5 | 0.00 | 0.00 | 0.00 | 70 | 1012.4 |
| 20260509202324 | 32 | 111 | 9.7 | 17.7 | 0.00 | 0.00 | 0.00 | 71 | 1012.3 |
| 20260509201835 | 32 | 158 | 9.7 | 20.9 | 0.00 | 0.00 | 0.00 | 70 | 1012.4 |
| 20260509201328 | 32 | 72 | 9.7 | 20.9 | 0.00 | 0.00 | 0.00 | 72 | 1012.4 |
| 20260509200837 | 32 | 160 | 11.3 | 19.3 | 0.00 | 0.00 | 0.00 | 71 | 1012.5 |
| 20260509200327 | 32 | 120 | 11.3 | 16.1 | 0.00 | 0.00 | 0.00 | 70 | 1012.6 |
| 20260509195858 | 32 | 123 | 9.7 | 17.7 | 0.00 | 0.00 | 0.00 | 71 | 1012.7 |
| 20260509195347 | 32 | 113 | 11.3 | 17.7 | 0.00 | 0.00 | 0.00 | 71 | 1012.6 |
| 20260509194832 | 32 | 134 | 8.0 | 17.7 | 0.00 | 0.00 | 0.00 | 72 | 1012.8 |
| 20260509194327 | 32 | 121 | 9.7 | 16.1 | 0.00 | 0.00 | 0.00 | 71 | 1012.9 |
| 20260509193841 | 32 | 162 | 8.0 | 20.9 | 0.00 | 0.00 | 0.00 | 71 | 1012.9 |
| 20260509193325 | 32 | 129 | 4.8 | 20.9 | 0.00 | 0.00 | 0.00 | 72 | 1012.9 |
| 20260509192835 | 32 | 102 | 4.8 | 12.9 | 0.00 | 0.00 | 0.00 | 71 | 1013.0 |
| 20260509192333 | 32 | 121 | 6.4 | 17.7 | 0.00 | 0.00 | 0.00 | 72 | 1013.0 |
| 20260509191845 | 32 | 122 | 6.4 | 17.7 | 0.00 | 0.00 | 0.00 | 70 | 1013.1 |
| 20260509191338 | 32 | 143 | 6.4 | 12.9 | 0.00 | 0.00 | 0.00 | 71 | 1013.1 |
| 20260509190827 | 32 | 115 | 8.0 | 14.5 | 0.00 | 0.00 | 0.00 | 73 | 1013.2 |
| 20260509190340 | 32 | 114 | 8.0 | 17.7 | 0.00 | 0.00 | 0.00 | 72 | 1013.2 |
| 20260509185826 | 32 | 133 | 8.0 | 17.7 | 0.00 | 0.00 | 0.00 | 72 | 1013.4 |
| 20260509185320 | 32 | 116 | 8.0 | 16.1 | 0.00 | 0.00 | 0.00 | 72 | 1013.4 |
| 20260509184841 | 31 | 196 | 3.2 | 17.7 | 0.00 | 0.00 | 0.00 | 73 | 1013.4 |
| 20260509184346 | 31 | 97 | 11.3 | 19.3 | 0.00 | 0.00 | 0.00 | 74 | 1013.5 |
| 20260509183833 | 32 | 123 | 14.5 | 20.9 | 0.00 | 0.00 | 0.00 | 71 | 1013.5 |
| 20260509183327 | 32 | 134 | 9.7 | 20.9 | 0.00 | 0.00 | 0.00 | 70 | 1013.4 |
| 20260509182845 | 32 | 167 | 8.0 | 17.7 | 0.00 | 0.00 | 0.00 | 71 | 1013.5 |
| 20260509182336 | 32 | 121 | 8.0 | 16.1 | 0.00 | 0.00 | 0.00 | 71 | 1013.7 |
| 20260509181819 | 32 | 160 | 9.7 | 16.1 | 0.00 | 0.00 | 0.00 | 72 | 1013.7 |
| 20260509181326 | 32 | 182 | 6.4 | 16.1 | 0.00 | 0.00 | 0.00 | 72 | 1013.8 |
| 20260509180819 | 32 | 128 | 9.7 | 16.1 | 0.00 | 0.00 | 0.00 | 71 | 1013.9 |
| 20260509180351 | 32 | 133 | 8.0 | 17.7 | 0.00 | 0.00 | 0.00 | 72 | 1014.0 |
| 20260509175823 | 32 | 146 | 9.7 | 17.7 | 0.00 | 0.00 | 0.00 | 71 | 1013.9 |
| 20260509175337 | 32 | 127 | 9.7 | 16.1 | 0.00 | 0.00 | 0.00 | 71 | 1013.9 |
| 20260509174827 | 32 | 147 | 9.7 | 14.5 | 0.00 | 0.00 | 0.00 | 71 | 1014.0 |
| 20260509174321 | 32 | 134 | 8.0 | 14.5 | 0.00 | 0.00 | 0.00 | 70 | 1014.1 |
| 20260509173835 | 33 | 101 | 4.8 | 11.3 | 0.00 | 0.00 | 0.00 | 66 | 1014.2 |
| 20260509173347 | 33 | 196 | 4.8 | 11.3 | 0.00 | 0.00 | 0.00 | 69 | 1014.3 |
| 20260509172820 | 33 | 182 | 1.6 | 4.8 | 0.00 | 0.00 | 0.00 | 66 | 1014.3 |
| 20260509172331 | 33 | 150 | 0.0 | 0.0 | 0.00 | 0.00 | 0.00 | 70 | 1014.3 |
| 20260509171823 | 33 | 276 | 0.0 | 0.0 | 0.00 | 0.00 | 0.00 | 68 | 1014.4 |
| 20260509171337 | 33 | 139 | 0.0 | 1.6 | 0.00 | 0.00 | 0.00 | 69 | 1014.4 |
| 20260509170829 | 32 | 32 | 0.0 | 8.0 | 0.00 | 0.00 | 0.00 | 71 | 1014.4 |
| 20260509170322 | 32 | 115 | 0.0 | 8.0 | 0.00 | 0.00 | 0.00 | 69 | 1014.5 |
| 20260509165833 | 32 | 120 | 0.0 | 1.6 | 0.00 | 0.00 | 0.00 | 69 | 1014.6 |
| 20260509165325 | 32 | 145 | 0.0 | 3.2 | 0.00 | 0.00 | 0.00 | 68 | 1014.7 |
| 20260509164827 | 32 | 25 | 0.0 | 3.2 | 0.00 | 0.00 | 0.00 | 70 | 1014.8 |
| 20260509164349 | 32 | 183 | 0.0 | 3.2 | 0.00 | 0.00 | 0.00 | 69 | 1014.7 |
| 20260509163352 | 32 | 137 | 0.0 | 6.4 | 0.00 | 0.00 | 0.00 | 68 | 1014.9 |
| 20260509162823 | 32 | 139 | 1.6 | 4.8 | 0.00 | 0.00 | 0.00 | 69 | 1014.9 |
| 20260509162345 | 32 | 114 | 0.0 | 6.4 | 0.00 | 0.00 | 0.00 | 69 | 1014.9 |
| 20260509161828 | 33 | 121 | 1.6 | 4.8 | 0.00 | 0.00 | 0.00 | 66 | 1015.0 |
| 20260509161342 | 33 | 83 | 1.6 | 6.4 | 0.00 | 0.00 | 0.00 | 67 | 1015.1 |
| 20260509160824 | 33 | 149 | 1.6 | 6.4 | 0.00 | 0.00 | 0.00 | 66 | 1015.2 |
| 20260509160329 | 33 | 136 | 1.6 | 6.4 | 0.00 | 0.00 | 0.00 | 68 | 1015.1 |
| 20260509155822 | 33 | 34 | 1.6 | 6.4 | 0.00 | 0.00 | 0.00 | 69 | 1015.2 |
| 20260509155336 | 32 | 144 | 1.6 | 6.4 | 0.00 | 0.00 | 0.00 | 70 | 1015.2 |
| 20260509154828 | 32 | 322 | 1.6 | 4.8 | 0.00 | 0.00 | 0.00 | 69 | 1015.3 |
| 20260509154320 | 33 | 274 | 1.6 | 6.4 | 0.00 | 0.00 | 0.00 | 68 | 1015.3 |
| 20260509153831 | 33 | 293 | 1.6 | 8.0 | 0.00 | 0.00 | 0.00 | 68 | 1015.3 |
| 20260509153323 | 32 | 202 | 3.2 | 8.0 | 0.00 | 0.00 | 0.00 | 69 | 1015.4 |
| 20260509152835 | 32 | 105 | 1.6 | 8.0 | 0.00 | 0.00 | 0.00 | 69 | 1015.4 |
| 20260509152347 | 32 | 144 | 1.6 | 8.0 | 0.00 | 0.00 | 0.00 | 69 | 1015.4 |
| 20260509151831 | 32 | 138 | 1.6 | 6.4 | 0.00 | 0.00 | 0.00 | 68 | 1015.4 |
| 20260509151341 | 33 | 172 | 1.6 | 8.0 | 0.00 | 0.00 | 0.00 | 68 | 1015.3 |
| 20260509150822 | 33 | 134 | 1.6 | 6.4 | 0.00 | 0.00 | 0.00 | 67 | 1015.4 |
| 20260509150340 | 33 | 316 | 3.2 | 9.7 | 0.00 | 0.00 | 0.00 | 68 | 1015.4 |
| 20260509145903 | 32 | 141 | 4.8 | 9.7 | 0.00 | 0.00 | 0.00 | 68 | 1015.4 |
| 20260509145322 | 32 | 125 | 0.0 | 6.4 | 0.00 | 0.00 | 0.00 | 70 | 1015.3 |
| 20260509144834 | 32 | 122 | 0.0 | 4.8 | 0.00 | 0.00 | 0.00 | 70 | 1015.2 |
| 20260509144325 | 32 | 101 | 0.0 | 4.8 | 0.00 | 0.00 | 0.00 | 71 | 1015.2 |
| 20260509143822 | 32 | 131 | 1.6 | 8.0 | 0.00 | 0.00 | 0.00 | 71 | 1015.2 |
| 20260509143339 | 31 | 153 | 3.2 | 11.3 | 0.00 | 0.00 | 0.00 | 72 | 1015.1 |
| 20260509142821 | 31 | 124 | 4.8 | 11.3 | 0.00 | 0.00 | 0.00 | 74 | 1015.2 |
| 20260509142329 | 31 | 132 | 4.8 | 9.7 | 0.00 | 0.00 | 0.00 | 73 | 1015.1 |
| 20260509141836 | 31 | 127 | 3.2 | 8.0 | 0.00 | 0.00 | 0.00 | 74 | 1015.2 |
| 20260509141350 | 31 | 108 | 0.0 | 8.0 | 0.00 | 0.00 | 0.00 | 75 | 1015.1 |
| 20260509140821 | 30 | 148 | 4.8 | 8.0 | 0.00 | 0.00 | 0.00 | 76 | 1015.1 |
| 20260509140331 | 31 | 154 | 4.8 | 9.7 | 0.00 | 0.00 | 0.00 | 75 | 1015.0 |
| 20260509135830 | 31 | 149 | 3.2 | 11.3 | 0.00 | 0.00 | 0.00 | 76 | 1014.9 |
| 20260509135324 | 31 | 148 | 3.2 | 9.7 | 0.00 | 0.00 | 0.00 | 76 | 1014.9 |
| 20260509134822 | 31 | 203 | 3.2 | 8.0 | 0.00 | 0.00 | 0.00 | 77 | 1014.7 |
| 20260509134333 | 30 | 179 | 3.2 | 8.0 | 0.00 | 0.00 | 0.00 | 78 | 1014.8 |
| 20260509133822 | 30 | 159 | 1.6 | 11.3 | 0.00 | 0.00 | 0.00 | 79 | 1014.7 |
| 20260509133355 | 30 | 131 | 3.2 | 11.3 | 0.00 | 0.00 | 0.00 | 79 | 1014.8 |
| 20260509132853 | 30 | 84 | 3.2 | 11.3 | 0.00 | 0.00 | 0.00 | 79 | 1014.7 |
| 20260509132343 | 29 | 146 | 6.4 | 12.9 | 0.00 | 0.00 | 0.00 | 79 | 1014.9 |
| 20260509131825 | 30 | 128 | 4.8 | 8.0 | 0.00 | 0.00 | 0.00 | 79 | 1014.9 |
| 20260509131333 | 30 | 177 | 1.6 | 9.7 | 0.00 | 0.00 | 0.00 | 80 | 1014.9 |
| 20260509130836 | 29 | 122 | 3.2 | 9.7 | 0.00 | 0.00 | 0.00 | 80 | 1014.9 |
| 20260509130346 | 28 | 115 | 3.2 | 8.0 | 0.00 | 0.00 | 0.00 | 81 | 1014.8 |
| 20260509125834 | 28 | 169 | 1.6 | 9.7 | 0.00 | 0.00 | 0.00 | 82 | 1014.8 |
| 20260509125343 | 28 | 152 | 3.2 | 9.7 | 0.00 | 0.00 | 0.00 | 82 | 1014.8 |
| 20260509124841 | 28 | 136 | 0.0 | 6.4 | 0.00 | 0.00 | 0.00 | 83 | 1014.8 |
| 20260509124330 | 28 | 108 | 1.6 | 6.4 | 0.00 | 0.00 | 0.00 | 83 | 1014.7 |
| 20260509123840 | 27 | 150 | 1.6 | 3.2 | 0.00 | 0.00 | 0.00 | 84 | 1014.7 |
| 20260509123332 | 27 | 298 | 0.0 | 3.2 | 0.00 | 0.00 | 0.00 | 84 | 1014.7 |
| 20260509122824 | 27 | 135 | 0.0 | 3.2 | 0.00 | 0.00 | 0.00 | 85 | 1014.7 |
| 20260509122334 | 27 | 131 | 1.6 | 3.2 | 0.00 | 0.00 | 0.00 | 85 | 1014.8 |
| 20260509121826 | 27 | 150 | 0.0 | 3.2 | 0.00 | 0.00 | 0.00 | 86 | 1014.7 |
| 20260509121323 | 27 | 159 | 0.0 | 3.2 | 0.00 | 0.00 | 0.00 | 88 | 1014.8 |
| 20260509120834 | 26 | 208 | 0.0 | 0.0 | 0.00 | 0.00 | 0.00 | 90 | 1014.8 |
| 20260509120323 | 26 | 209 | 0.0 | 0.0 | 0.00 | 0.00 | 0.00 | 91 | 1014.8 |
| 20260509115834 | 25 | 208 | 0.0 | 0.0 | 0.00 | 0.00 | 0.00 | 91 | 1014.8 |
| 20260509115326 | 25 | 289 | 0.0 | 0.0 | 0.00 | 0.00 | 0.00 | 92 | 1014.8 |
| 20260509114848 | 25 | 289 | 0.0 | 0.0 | 0.00 | 0.00 | 0.00 | 92 | 1014.8 |
| 20260509114321 | 25 | 289 | 0.0 | 0.0 | 0.00 | 0.00 | 0.00 | 92 | 1014.9 |
| 20260509113844 | 25 | 289 | 0.0 | 0.0 | 0.00 | 0.00 | 0.00 | 92 | 1014.9 |
| 20260509113339 | 25 | 289 | 0.0 | 0.0 | 0.00 | 0.00 | 0.00 | 93 | 1014.8 |
| 20260509112829 | 25 | 289 | 0.0 | 0.0 | 0.00 | 0.00 | 0.00 | 93 | 1014.7 |
| 20260509112323 | 24 | 289 | 0.0 | 0.0 | 0.00 | 0.00 | 0.00 | 93 | 1014.7 |
| 20260509111909 | 24 | 289 | 0.0 | 0.0 | 0.00 | 0.00 | 0.00 | 93 | 1014.7 |
| 20260509111321 | 23 | 289 | 0.0 | 0.0 | 0.00 | 0.00 | 0.00 | 93 | 1014.7 |
| 20260509110823 | 23 | 289 | 0.0 | 0.0 | 0.00 | 0.00 | 0.00 | 92 | 1014.6 |
| 20260509110337 | 23 | 289 | 0.0 | 0.0 | 0.00 | 0.00 | 0.00 | 92 | 1014.7 |
| 20260509105829 | 23 | 289 | 0.0 | 0.0 | 0.00 | 0.00 | 0.00 | 92 | 1014.7 |
| 20260509105324 | 23 | 289 | 0.0 | 0.0 | 0.00 | 0.00 | 0.00 | 92 | 1014.6 |
| 20260509104846 | 23 | 289 | 0.0 | 0.0 | 0.00 | 0.00 | 0.00 | 92 | 1014.6 |
| 20260509104333 | 23 | 289 | 0.0 | 0.0 | 0.00 | 0.00 | 0.00 | 92 | 1014.6 |
| 20260509103843 | 23 | 289 | 0.0 | 0.0 | 0.00 | 0.00 | 0.00 | 92 | 1014.5 |
| 20260509103333 | 23 | 289 | 0.0 | 0.0 | 0.00 | 0.00 | 0.00 | 92 | 1014.6 |
| 20260509102825 | 23 | 289 | 0.0 | 0.0 | 0.00 | 0.00 | 0.00 | 92 | 1014.5 |
| 20260509102338 | 23 | 289 | 0.0 | 0.0 | 0.00 | 0.00 | 0.00 | 92 | 1014.4 |
| 20260509101822 | 23 | 289 | 0.0 | 0.0 | 0.00 | 0.00 | 0.00 | 92 | 1014.4 |
| 20260509101332 | 23 | 289 | 0.0 | 0.0 | 0.00 | 0.00 | 0.00 | 92 | 1014.4 |
| 20260509100840 | 24 | 289 | 0.0 | 0.0 | 0.00 | 0.00 | 0.00 | 92 | 1014.3 |
| 20260509100347 | 24 | 289 | 0.0 | 0.0 | 0.00 | 0.00 | 0.00 | 92 | 1014.5 |
| 20260509095821 | 24 | 289 | 0.0 | 0.0 | 0.00 | 0.00 | 0.00 | 92 | 1014.4 |
| 20260509095344 | 24 | 289 | 0.0 | 0.0 | 0.00 | 0.00 | 0.00 | 92 | 1014.5 |
| 20260509094837 | 24 | 289 | 0.0 | 0.0 | 0.00 | 0.00 | 0.00 | 92 | 1014.4 |
| 20260509094326 | 24 | 289 | 0.0 | 0.0 | 0.00 | 0.00 | 0.00 | 92 | 1014.3 |
| 20260509093841 | 24 | 289 | 0.0 | 0.0 | 0.00 | 0.00 | 0.00 | 92 | 1014.4 |
| 20260509093406 | 24 | 289 | 0.0 | 1.6 | 0.00 | 0.00 | 0.00 | 92 | 1014.3 |
| 20260509092821 | 24 | 289 | 0.0 | 1.6 | 0.00 | 0.00 | 0.00 | 92 | 1014.1 |
| 20260509092407 | 24 | 289 | 0.0 | 0.0 | 0.00 | 0.00 | 0.00 | 92 | 1014.1 |
| 20260509091827 | 24 | 289 | 0.0 | 0.0 | 0.00 | 0.00 | 0.00 | 92 | 1014.3 |
| 20260509091323 | 24 | 289 | 0.0 | 0.0 | 0.00 | 0.00 | 0.00 | 92 | 1014.2 |
| 20260509090837 | 24 | 289 | 0.0 | 0.0 | 0.00 | 0.00 | 0.00 | 92 | 1014.3 |
| 20260509090350 | 24 | 289 | 0.0 | 0.0 | 0.00 | 0.00 | 0.00 | 92 | 1014.2 |
| 20260509085841 | 24 | 289 | 0.0 | 0.0 | 0.00 | 0.00 | 0.00 | 92 | 1014.1 |
| 20260509085330 | 24 | 289 | 0.0 | 0.0 | 0.00 | 0.00 | 0.00 | 92 | 1014.2 |
| 20260509084843 | 24 | 289 | 0.0 | 0.0 | 0.00 | 0.00 | 0.00 | 92 | 1014.1 |
| 20260509084345 | 24 | 289 | 0.0 | 0.0 | 0.00 | 0.00 | 0.00 | 92 | 1014.1 |
| 20260509083835 | 25 | 289 | 0.0 | 0.0 | 0.00 | 0.00 | 0.00 | 92 | 1014.0 |
| 20260509083320 | 25 | 289 | 0.0 | 0.0 | 0.00 | 0.00 | 0.00 | 92 | 1014.1 |
| 20260509082831 | 25 | 289 | 0.0 | 0.0 | 0.00 | 0.00 | 0.00 | 91 | 1014.0 |
| 20260509082323 | 25 | 289 | 0.0 | 0.0 | 0.00 | 0.00 | 0.00 | 91 | 1014.1 |
| 20260509081835 | 25 | 289 | 0.0 | 0.0 | 0.00 | 0.00 | 0.00 | 91 | 1014.0 |
| 20260509081331 | 25 | 289 | 0.0 | 0.0 | 0.00 | 0.00 | 0.00 | 91 | 1014.0 |
| 20260509080826 | 25 | 289 | 0.0 | 0.0 | 0.00 | 0.00 | 0.00 | 91 | 1014.1 |
| 20260509080335 | 25 | 289 | 0.0 | 0.0 | 0.00 | 0.00 | 0.00 | 91 | 1014.0 |
| 20260509075829 | 25 | 289 | 0.0 | 0.0 | 0.00 | 0.00 | 0.00 | 91 | 1014.0 |
| 20260509075322 | 25 | 289 | 0.0 | 3.2 | 0.00 | 0.00 | 0.00 | 91 | 1014.0 |
| 20260509074835 | 25 | 289 | 0.0 | 3.2 | 0.00 | 0.00 | 0.00 | 91 | 1014.1 |
| 20260509074329 | 25 | 199 | 0.0 | 0.0 | 0.00 | 0.00 | 0.00 | 91 | 1014.1 |
| 20260509073823 | 25 | 149 | 0.0 | 0.0 | 0.00 | 0.00 | 0.00 | 91 | 1014.2 |
| 20260509073331 | 25 | 149 | 0.0 | 0.0 | 0.00 | 0.00 | 0.00 | 91 | 1014.1 |
| 20260509072824 | 25 | 149 | 0.0 | 0.0 | 0.00 | 0.00 | 0.00 | 91 | 1014.1 |
| 20260509072359 | 25 | 149 | 0.0 | 0.0 | 0.00 | 0.00 | 0.00 | 91 | 1014.0 |
| 20260509071905 | 25 | 149 | 0.0 | 0.0 | 0.00 | 0.00 | 0.00 | 91 | 1014.1 |
| 20260509071355 | 25 | 149 | 0.0 | 0.0 | 0.00 | 0.00 | 0.00 | 91 | 1014.2 |
| 20260509070828 | 25 | 149 | 0.0 | 0.0 | 0.00 | 0.00 | 0.00 | 90 | 1014.1 |
| 20260509070323 | 25 | 149 | 0.0 | 0.0 | 0.00 | 0.00 | 0.00 | 90 | 1014.2 |
| 20260509065845 | 25 | 149 | 0.0 | 0.0 | 0.00 | 0.00 | 0.00 | 90 | 1014.2 |
| 20260509065335 | 25 | 149 | 0.0 | 0.0 | 0.00 | 0.00 | 0.00 | 90 | 1014.2 |
| 20260509064835 | 25 | 149 | 0.0 | 0.0 | 0.00 | 0.00 | 0.00 | 90 | 1014.3 |
| 20260509064327 | 25 | 149 | 0.0 | 0.0 | 0.00 | 0.00 | 0.00 | 90 | 1014.4 |
| 20260509063826 | 25 | 149 | 0.0 | 0.0 | 0.00 | 0.00 | 0.00 | 89 | 1014.3 |
| 20260509063347 | 25 | 149 | 0.0 | 0.0 | 0.00 | 0.00 | 0.00 | 90 | 1014.3 |
| 20260509062839 | 25 | 149 | 0.0 | 0.0 | 0.00 | 0.00 | 0.00 | 89 | 1014.3 |
| 20260509062335 | 25 | 149 | 0.0 | 0.0 | 0.00 | 0.00 | 0.00 | 90 | 1014.3 |
| 20260509061824 | 25 | 149 | 0.0 | 0.0 | 0.00 | 0.00 | 0.00 | 90 | 1014.4 |
| 20260509061339 | 25 | 149 | 0.0 | 1.6 | 0.00 | 0.00 | 0.00 | 90 | 1014.4 |
| 20260509060830 | 25 | 149 | 0.0 | 1.6 | 0.00 | 0.00 | 0.00 | 90 | 1014.4 |
| 20260509060322 | 25 | 127 | 0.0 | 0.0 | 0.00 | 0.00 | 0.00 | 90 | 1014.4 |
| 20260509055832 | 25 | 127 | 0.0 | 0.0 | 0.00 | 0.00 | 0.00 | 90 | 1014.4 |
| 20260509055324 | 25 | 127 | 0.0 | 0.0 | 0.00 | 0.00 | 0.00 | 90 | 1014.4 |
| 20260509054848 | 25 | 127 | 0.0 | 0.0 | 0.00 | 0.00 | 0.00 | 90 | 1014.5 |